World > North America > United States > Pennsylvania

Belltown, Pennsylvania Regional Weather

Lat: 40.70N, Lon: 77.4W
Wx Zone: PAZ027Web Search

If you are on your PC, you can easily pass this page to your phone by scanning the QR Code near the bottom with your camera.

Feedback


°F Click to change Belltown hourly weather to Imperial units.Click to change Belltown hourly weather to Metric units. °C
Belltown Weather Map
UTC Time: 5/16/2021, 15:52
Your Time:

Belltown, PA Regional Weather

Expires:202105161600;;207927
ASUS41 KCTP 161510
RWRCTP

REGIONAL WEATHER ROUNDUP
NATIONAL WEATHER SERVICE STATE COLLEGE PA
1100 AM EDT SUN MAY 16 2021

Note: "fair" indicates few or no clouds below 12,000 feet with no 
significant weather and/or obstructions to visibility.

* = STATION THAT DOES NOT REPORT PRECIPITATION /E.G. RAIN...SNOW...ETC/
    THUNDER OR FOG.


PAZ004>006-010>012-017>019-024>028-033>037-041-042-045-046-049>053-161600-
CENTRAL PENNSYLVANIA
  
CITY           SKY/WX    TMP DP  RH WIND       PRES   REMARKS
BRADFORD       MOSUNNY   62  33  33 S9        30.27R                  
ST MARYS       CLOUDY    61  37  41 S8        30.31S                  
DUBOIS         CLOUDY    61  39  44 SE8       30.28R                  
CLEARFIELD     CLOUDY    55  43  63 CALM      30.30R                  
JOHNSTOWN      CLOUDY    57  36  45 S10       30.28S                  
SOMERSET       CLOUDY    55  36  47 SW7       30.30R                  
ALTOONA        CLOUDY    58  42  55 SW8       30.30R                  
STATE COLLEGE  CLOUDY    55  43  62 CALM      30.30R                  
REEDSVILLE     FAIR      59 N/A N/A S6        30.28S                  
WELLSBORO      FAIR      59  39  47 S8        30.28S                  
WILLIAMSPORT   MOSUNNY   60  44  55 CALM      30.27F                  
SELINSGROVE    MOSUNNY   60  48  64 CALM      30.29S                  
FT INDIANTOWN  MOSUNNY   65  46  50 CALM      30.28S                  
CAPITAL CITY   LGT RAIN  62  47  57 CALM      30.28S                  
HARRISBURG     CLOUDY    62  47  57 CALM      30.28S                  
YORK           MOSUNNY   64  46  52 CALM      30.28S                  
$$


SKY/WX - Weather  TMP - Temperature  DP - Dew Point  RH - Relative Humidity
WIND - Wind Direction/Speed PRES - Barometric Pressure VSB - Visibility
WCI - Wind Chill Index E13G22 Wind - East Wind 13 mph/Gusts of 22 mph